Location: ?????????
(41.2393°N, 22.9479°E)
Time: 21:30:01
(UTC+00:00)

Cosmos 2082 Rocket - Pass Details

Date: 17 November 2025
Orbit: 834 x 851 km, 71.0° (Epoch: 11 December)

Event Time Altitude Azimuth Distance (km) Brightness Sun altitude
Rises 17:49:38 0° 326° (NW) 3,387 5.8 -30.4°
Reaches altitude 10° 17:52:18 10° 317° (NW) 2,449 5.1 -30.9°
Maximum altitude 17:57:10 31° 256° (WSW) 1,419 3.8 -31.8°
Drops below altitude 10° 18:02:02 10° 196° (SSW) 2,439 4.7 -32.8°
Sets 18:04:42 0° 186° (S) 3,371 5.4 -33.3°
